Regional Weather Roundup
Issued by NWS Northern Indiana

Home | Current Version | Previous Version | Graphics & Text | Print | Product List | Glossary On
Versions: 1 2 3 4 5 6 7 8 9 10 11 12 13 14 15 16 17 18 19 20 21 22 23 24 25 26 27 28 29 30 31 32 33 34 35 36 37 38 39 40 41 42 43 44 45 46 47 48 49 50
000
ASUS43 KIWX 311500
RWRIWX

KIWX WEATHER ROUNDUP
NATIONAL WEATHER SERVICE NORTHERN INDIANA
1100 AM EDT TUE MAY 31 2016

NOTE: "FAIR" INDICATES FEW OR NO CLOUDS BELOW 12,000 FEET WITH NO
SIGNIFICANT WEATHER AND/OR OBSTRUCTIONS TO VISIBILITY.

* THESE STATIONS ARE NOT UNDER NWS QUALITY CONTROL. THEY ALSO MAY NOT
  REPORT WEATHER SUCH AS PRECIPITATION OR FOG.

INZ001>027-311600-
NORTHERN INDIANA

CITY           SKY/WX    TMP DP  RH WIND       PRES   REMARKS
GARY*          PTSUNNY   79  64  61 SE7       30.00F
SOUTH BEND     CLOUDY    72  54  53 E10       30.04S
ELKHART*       MOSUNNY   81  59  47 E9        30.03F
GOSHEN         PTSUNNY   76  54  46 E8        30.02F
ANGOLA*          N/A     79  46  31 E8        30.04F
FORT WAYNE     PTSUNNY   76  56  49 NE7       30.03F

$$
INZ028>050-311600-
CENTRAL INDIANA

CITY           SKY/WX    TMP DP  RH WIND       PRES   REMARKS
LAFAYETTE      CLOUDY    78  60  53 SE6       29.98F
KOKOMO*        MOSUNNY   79  55  44 E7        30.01F
MUNCIE*        MOSUNNY   81  55  40 VRB5      30.02F
INDIANAPOLIS   PTSUNNY   81  62  52 CALM      30.00F

$$
MIZ043>046-050>051-056>058-064>065-071>073-077>080-311600-
SOUTHWEST LOWER MICHIGAN

CITY           SKY/WX    TMP DP  RH WIND       PRES   REMARKS
BATTLE CREEK   MOSUNNY   76  50  40 E8        30.05F
BENTON HARBOR  PTSUNNY   78  51  38 E9        30.02F
COLDWATER*     MOSUNNY   76  52  42 NE7       30.04F
HILLSDALE*     MOSUNNY   76  38  25 NE5       30.06S
HOLLAND        SUNNY     78  49  35 E10       30.04F
GRAND RAPIDS   PTSUNNY   77  49  37 E10       30.05F
KALAMAZOO      MOSUNNY   77  48  35 VRB5      30.04F
STURGIS*       MOSUNNY   79  47  32 E9        30.03F
THREE RIVERS*  FAIR      78  46  31 E8        30.04F

$$
OHZ001>008-015>018-024>025-311600-
NORTHWEST OHIO

CITY           SKY/WX    TMP DP  RH WIND       PRES   REMARKS
DEFIANCE       MOSUNNY   79  50  36 E8        30.04S
FINDLAY        CLOUDY    79  56  45 N7        30.02S
TOLEDO EXPRESS CLOUDY    77  51  40 NE8       30.04R
TOLEDO METCALF CLOUDY    77  54  44 NE8       30.05R
LIMA           CLOUDY    79  53  40 NE8       30.03S

$$
AND FOR LAKE MICHIGAN COASTAL AND OPEN LAKE BUOY OBSERVATIONS

STATION/POSITION TEMP    WIND        PRES    VSBY  WAVE
                 AIR SEA DIR/SP/G                  HT/PER
                 (F)     (DEG/KT/KT) (MB)    (MI)  (FT/S)
CALUMET HARBOR    66      50/  2/  3 1015.6R
MICHIGAN CITY     73      90/  7/  9   N/A
BURNS HARBOR      74     150/  4/  9 1016.6S
SAINT JOSEPH      76      30/  2/  7 1016.9F
SOUTH LAKE BUOY   57 55   60/ 10/ 12 1016.8          0
4 MI NW BRIDGMAN  69 65   90/  4/  6   N/A           1
MICHIGAN CITY     67 61   70/  6/  8   N/A           0

$$
&&



USA.gov is the U.S. government's official web portal to all federal, state and local government web resources and services.